Tracking 26922 objects as of 29-Jan-2023
HD Live streaming from Space Station
objects crossing your sky now

LUCH DEB

Track LUCH DEB now!


NORAD ID: 44582
Int'l Code: 1994-082G
Perigee: 35,596.7 km
Apogee: 35,760.7 km
Inclination: 14.7 °
Period: 1,430.2 minutes
Semi major axis: 42049 km
RCS: Unknown
Launch date: December 16, 1994
Source: Commonwealth of Independent States (former USSR) (CIS)
Launch site: TYURATAM MISSILE AND SPACE COMPLEX (TTMTR)

Note: This is SATELLITE DEBRIS
Your satellite tracking list
Your tracking list is empty




NASA's NSSDC Master Catalog

Two Line Element Set (TLE):
1 44582U 94082G   23028.65798586 -.00000003  00000-0  00000-0 0  9999
2 44582  14.7105   3.7528 0019508  66.7763 101.5516  1.00683564 33802
Source of the keplerian elements: AFSPC